GW6233 Weather Reports


time (UTC)temp
F
wind
direction
speed
knots
gust
knots
rain 1hr
in
rain 24hr
in
rain mn
in
humidity
%
barometer
mb
20260504150831 63 215 0.9 3.5 0.00 0.00 0.00 59 1012.7
20260504140858 60 218 1.7 3.5 0.00 0.00 0.00 65 1012.9
20260504081727 46 203 0.9 1.7 0.00 0.00 0.00 71 1014.1
20260504080705 45 207 0.9 1.7 0.00 0.00 0.00 71 1014.1
20260504050631 45 199 0.9 1.7 0.00 0.00 0.00 66 1013.8
20260504045628 45 207 0.9 1.7 0.00 0.00 0.00 66 1013.8
20260504044626 45 210 0.9 2.6 0.00 0.00 0.00 67 1013.6
20260504043625 45 194 0.9 1.7 0.00 0.00 0.00 67 1013.6
20260504042622 45 171 0.9 1.7 0.00 0.00 0.00 67 1013.5
20260504041620 45 176 0.9 0.9 0.00 0.00 0.00 67 1013.3
20260504040618 44 185 0.9 0.9 0.00 0.00 0.00 67 1013.3
20260504035615 45 168 0.9 0.9 0.00 0.00 0.00 66 1013.2
20260504034636 45 161 0.9 0.9 0.00 0.00 0.00 66 1013.2
20260504033612 45 198 0.9 0.9 0.00 0.00 0.00 66 1013.2
20260504032610 45 172 0.9 0.9 0.00 0.00 0.00 64 1013.1
20260504031608 45 163 0.9 0.9 0.00 0.00 0.00 64 1013.1
20260504030606 45 135 0.9 0.9 0.00 0.00 0.00 63 1013.1
20260504025624 46 126 0.9 0.9 0.00 0.00 0.00 63 1013.1
20260504024625 46 164 0.9 0.9 0.00 0.00 0.00 63 1013.1
20260504023601 46 153 0.9 0.9 0.00 0.00 0.00 62 1013.2
20260504022600 46 144 0.9 0.9 0.00 0.00 0.00 61 1013.1
20260504021556 46 135 0.9 0.9 0.00 0.00 0.00 59 1013.2
20260504020614 47 90 0.9 0.9 0.00 0.00 0.00 59 1013.1
20260504015552 47 135 0.9 0.9 0.00 0.00 0.00 59 1013.1
20260504014550 48 90 0.9 0.9 0.00 0.00 0.00 58 1013.0
20260504013550 48 126 0.9 0.9 0.00 0.00 0.00 57 1012.9
20260504012551 49 158 0.9 0.9 0.00 0.00 0.00 57 1012.8
20260504011544 49 172 0.9 0.9 0.00 0.00 0.00 56 1012.7
20260504010543 50 135 0.9 0.9 0.00 0.00 0.00 54 1012.5
20260504005541 51 0.0 0.9 0.00 0.00 0.00 52 1012.4
20260504004538 53 175 0.9 0.9 0.00 0.00 0.00 51 1012.2
20260504003536 54 146 0.9 0.9 0.00 0.00 0.00 50 1012.2
20260504002534 55 158 0.9 0.9 0.00 0.00 0.00 48 1012.0
20260504001532 56 183 0.9 0.9 0.00 0.00 0.00 46 1011.9
20260504000530 56 208 0.9 2.6 0.00 0.00 0.00 45 1011.8
20260503235528 57 216 0.9 3.5 0.00 0.00 0.00 44 1011.9
20260503234527 57 210 0.9 2.6 0.00 0.00 0.00 43 1011.8
20260503233524 58 213 0.9 3.5 0.00 0.00 0.00 43 1011.5
20260503232523 58 213 0.9 3.5 0.00 0.00 0.00 42 1011.5
20260503231520 58 221 0.9 2.6 0.00 0.00 0.00 42 1011.4
20260503230518 59 225 0.9 3.5 0.00 0.00 0.00 41 1011.3
20260503225516 59 206 0.9 3.5 0.00 0.00 0.00 41 1011.4
20260503224514 59 209 0.9 6.1 0.00 0.00 0.00 41 1011.5
20260503223512 60 225 1.7 6.1 0.00 0.00 0.00 40 1011.4
20260503222510 60 203 0.9 3.5 0.00 0.00 0.00 40 1011.3
20260503221508 61 315 1.7 5.2 0.00 0.00 0.00 39 1011.4
20260503220517 62 217 2.6 6.1 0.00 0.00 0.00 38 1011.4
20260503215504 62 225 1.7 11.3 0.00 0.00 0.00 39 1011.3
20260503214503 62 225 2.6 11.3 0.00 0.00 0.00 39 1011.4
20260503213540 62 225 1.7 5.2 0.00 0.00 0.00 39 1011.3
20260503212458 62 228 1.7 10.4 0.00 0.00 0.00 39 1011.3
20260503211516 62 323 1.7 6.1 0.00 0.00 0.00 38 1011.4
20260503210514 63 270 2.6 7.8 0.00 0.00 0.00 38 1011.3
20260503205453 63 240 1.7 7.8 0.00 0.00 0.00 39 1011.3
20260503204450 63 247 2.6 7.8 0.00 0.00 0.00 38 1011.3
20260503203447 63 225 1.7 5.2 0.00 0.00 0.00 39 1011.2
20260503202508 62 212 3.5 12.2 0.00 0.00 0.00 38 1011.4
20260503201504 62 298 2.6 12.2 0.00 0.00 0.00 39 1011.3
20260503200442 62 29 2.6 7.8 0.00 0.00 0.00 38 1011.3
20260503195440 62 225 0.9 6.1 0.00 0.00 0.00 40 1011.4
20260503194439 61 45 1.7 6.1 0.00 0.00 0.00 39 1011.5
20260503193437 61 299 3.5 7.8 0.00 0.00 0.00 38 1011.5
20260503192456 62 229 1.7 5.2 0.00 0.00 0.00 40 1011.7
20260503191433 61 350 2.6 7.8 0.00 0.00 0.00 41 1011.8
20260503190451 61 221 3.5 6.1 0.00 0.00 0.00 39 1011.9
20260503185428 61 323 1.7 7.8 0.00 0.00 0.00 41 1012.0
20260503184425 60 299 2.6 8.7 0.00 0.00 0.00 42 1012.1
20260503183424 60 235 3.5 11.3 0.00 0.00 0.00 40 1012.0
20260503182442 60 245 1.7 6.1 0.00 0.00 0.00 43 1012.2
20260503181420 60 227 1.7 5.2 0.00 0.00 0.00 42 1012.3
20260503180418 59 225 2.6 9.6 0.00 0.00 0.00 44 1012.2
20260503175416 59 233 1.7 6.1 0.00 0.00 0.00 44 1012.2
20260503174415 57 322 3.5 8.7 0.00 0.00 0.00 46 1012.2
20260503173414 56 18 2.6 7.8 0.00 0.00 0.00 46 1012.3
20260503172410 57 217 2.6 5.2 0.00 0.00 0.00 45 1012.2
20260503171408 57 48 1.7 5.2 0.00 0.00 0.00 47 1012.1
20260503170411 55 0 2.6 7.8 0.00 0.00 0.00 48 1012.3